Location: Unspecified
(0.0000°N, 0.0000°E)
Time: 06:11:52
(UTC+00:00)

Vanguard 2 - Visible Passes

Search period start: 24 April 2014 00:00
Search period end: 04 May 2014 00:00
Orbit: 555 x 2949 km, 32.9° (Epoch: 23 April)

Date Brightness Start Highest point End Pass type
(mag) Time Alt. Az. Time Alt. Az. Time Alt. Az.
24 Apr 11.5 00:39:25 17° NE 00:39:25 17° NE 00:41:31 10° NE visible
24 Apr 11.0 02:40:55 26° NNW 02:40:55 26° NNW 02:49:41 10° NNE visible
24 Apr 10.7 20:07:44 10° SSW 20:16:47 29° SSE 20:16:47 29° SSE visible
24 Apr 11.5 22:16:18 10° SW 22:18:20 17° SW 22:18:20 17° SW visible
25 Apr 11.3 00:57:15 22° NNE 00:57:15 22° NNE 01:01:01 10° NE visible
25 Apr 11.2 02:58:44 19° NW 02:59:51 20° NNW 03:08:36 10° NNE visible
25 Apr 11.0 18:21:59 10° S 18:25:58 12° SSE 18:30:28 10° SE visible
25 Apr 10.5 20:26:52 10° SSW 20:35:31 35° S 20:35:31 35° S visible
25 Apr 11.6 22:36:07 10° SW 22:37:05 13° SW 22:37:05 13° SW visible
26 Apr 11.2 01:14:59 25° NNE 01:14:59 25° NNE 01:20:22 10° NNE visible
26 Apr 11.4 03:16:28 13° NW 03:20:47 15° NNW 03:27:21 10° N visible
26 Apr 10.8 18:39:49 10° S 18:46:40 17° SSE 18:52:49 13° ESE visible
26 Apr 10.4 20:46:07 10° SW 20:54:23 41° S 20:54:23 41° S visible
27 Apr 11.2 01:32:38 26° N 01:32:38 26° N 01:39:38 10° NNE visible
27 Apr 11.5 03:37:55 10° NW 03:41:59 11° NNW 03:45:41 10° N visible
27 Apr 10.6 18:58:23 10° SSW 19:07:03 23° SE 19:11:49 20° ESE visible
27 Apr 10.4 21:05:32 10° SW 21:13:25 44° SSW 21:13:25 44° SSW visible
27 Apr 11.7 23:48:44 13° NE 23:48:44 13° NE 23:49:42 10° NE visible
28 Apr 11.3 01:50:11 24° NNW 01:50:11 24° NNW 01:58:50 10° NNE visible
28 Apr 10.4 19:17:13 10° SSW 19:27:10 32° SE 19:31:00 29° ESE visible
28 Apr 10.5 21:25:08 10° SW 21:32:37 44° SW 21:32:37 44° SW visible
29 Apr 11.6 00:06:11 18° NNE 00:06:11 18° NNE 00:09:12 10° NE visible
29 Apr 11.4 02:07:38 19° NNW 02:08:25 19° NNW 02:18:02 10° NNE visible
29 Apr 10.1 19:36:15 10° SSW 19:47:06 43° SE 19:50:24 39° ESE visible
29 Apr 10.6 21:44:59 10° WSW 21:52:02 41° WSW 21:52:02 41° WSW visible
30 Apr 11.5 00:23:31 22° NNE 00:23:31 22° NNE 00:28:35 10° NNE visible
30 Apr 11.6 02:24:57 14° NW 02:29:43 15° NNW 02:37:22 10° NNE visible
30 Apr 9.8 19:55:29 10° SW 20:06:56 57° SE 20:10:04 51° ESE visible
30 Apr 10.8 22:05:06 10° WSW 22:11:44 36° W 22:11:44 36° W visible
01 May 11.4 00:40:42 24° N 00:40:42 24° N 00:47:58 10° NNE visible
01 May 11.7 02:44:46 10° NW 02:51:15 13° NNW 02:57:02 10° NNE visible
01 May 11.5 05:04:37 10° N 05:07:38 11° N 05:10:21 10° NNE visible
01 May 10.3 18:08:18 10° SSW 18:15:43 24° SE 18:25:58 10° E visible
01 May 9.7 20:14:54 10° SW 20:26:46 74° SE 20:30:04 61° E visible
01 May 11.0 22:25:35 10° WSW 22:56:17 12° NE 22:57:04 10° NE visible
02 May 11.5 00:57:41 22° NNW 00:57:41 22° NNW 01:07:23 10° NNE visible
02 May 11.7 03:07:46 10° NNW 03:12:54 12° N 03:17:33 10° NNE visible
02 May 11.3 05:23:01 10° NNW 05:28:42 15° NNE 05:33:17 10° NE visible
02 May 10.0 18:27:02 10° SSW 18:35:31 34° SE 18:48:05 10° E visible
02 May 9.8 20:34:32 10° SW 20:46:41 87° NW 20:50:32 62° NE visible
02 May 11.2 22:46:30 10° W 23:13:00 18° NNE 23:16:35 10° NE visible
03 May 11.6 01:14:22 18° NNW 01:16:51 19° NNW 01:27:00 10° NNE visible
03 May 11.7 03:29:10 10° NNW 03:34:33 12° N 03:39:17 10° NNE visible
03 May 9.7 18:46:02 10° SSW 18:55:12 47° SE 19:09:28 10° ENE visible
03 May 10.0 20:54:27 10° WSW 21:06:45 69° NW 21:11:42 51° NNE visible
03 May 11.4 23:07:54 10° W 23:29:12 23° N 23:36:03 10° NNE visible
